Air Force Academy, CO

6:21 PM MDT on June 26, 2017 (GMT -0600)
Usaf Academy

Weather History for KAFF - October, 2013

Change the Weather History Date:

Saturday, October 19, 2013

  Actual Average Record
Temperature  
Mean Temperature 40 °F -  
Max Temperature 59 °F 58 °F 74 °F (2007)
Min Temperature 22 °F 32 °F 15 °F (2006)
Degree Days  
Heating Degree Days 25    
Moisture  
Dew Point 20 °F    
Average Humidity 50    
Maximum Humidity 90    
Minimum Humidity 19    
Precipitation  
Precipitation 0.00 in - - ()
Sea Level Pressure  
Sea Level Pressure 30.07 in    
Wind  
Wind Speed 7 mph (ENE)    
Max Wind Speed 10 mph    
Max Gust Speed -    
Visibility 10 miles    
Events      
Averages and records for this station are not official NWS values.
T = Trace of Precipitation, MM = Missing Value Source: NWS Daily Summary

Daily Weather History Graph

Daily Weather History Graph

Search for Another Location

Airport or City:

Trip Planner

Search our weather history database for the weather conditions in past years. The results will help you decide how hot, cold, wet, or windy it might be!

Date:

Astronomy

Oct. 19, 2013 Rise Set
Actual Time 7:13 AM MDT 6:14 PM MDT
Civil Twilight 6:46 AM MDT 6:41 PM MDT
Nautical Twilight 6:14 AM MDT 7:12 PM MDT
Astronomical Twilight 5:44 AM MDT 7:43 PM MDT
Moon 6:44 PM MDT (10/19) 7:52 AM MDT (10/19)
Length of Visible Light 11h 55m
Length of Day
11h 01m
Full, 99% of the Moon is Illuminated
Oct 19
Full
Oct 26
Last Quarter
Nov 3
New
Nov 9
First Quarter
Nov 17
Full

Hourly Weather History & Observations

Time (MDT) Temp. Windchill Dew Point Humidity Pressure Visibility Wind Dir Wind Speed Gust Speed Precip Events Conditions
12:58 AM 22.1 °F 13.7 °F 19.6 °F 90% 30.15 in 10.0 mi North 6.9 mph - -   Clear
1:58 AM 23.0 °F 15.8 °F 20.3 °F 89% 30.21 in 10.0 mi NNE 5.8 mph - -   Clear
2:58 AM 24.6 °F 17.7 °F 20.5 °F 84% 30.19 in 10.0 mi North 5.8 mph - -   Clear
3:58 AM 23.2 °F 14.1 °F 18.3 °F 82% 30.17 in 10.0 mi NE 8.1 mph - -   Clear
4:58 AM 26.6 °F 16.8 °F 17.6 °F 69% 30.16 in 10.0 mi ENE 10.4 mph - N/A   Clear
5:58 AM 30.7 °F 22.6 °F 17.1 °F 57% 30.17 in 10.0 mi ENE 9.2 mph - N/A   Clear
6:58 AM 30.6 °F 23.8 °F 17.2 °F 58% 30.17 in 10.0 mi NE 6.9 mph - N/A   Clear
7:58 AM 32.4 °F 27.9 °F 18.7 °F 57% 30.17 in 10.0 mi ENE 4.6 mph - N/A   Clear
8:58 AM 37.6 °F 33.1 °F 20.7 °F 51% 30.17 in 10.0 mi ENE 5.8 mph - N/A   Clear
9:58 AM 47.7 °F - 16.0 °F 28% 30.12 in 10.0 mi South 5.8 mph - N/A   Clear
10:58 AM 51.1 °F - 15.4 °F 24% 30.10 in 10.0 mi SSE 6.9 mph - N/A   Clear
11:58 AM 53.4 °F - 15.3 °F 22% 30.08 in 10.0 mi SSE 10.4 mph - N/A   Clear
12:58 PM 55.0 °F - 15.8 °F 21% 30.05 in 10.0 mi SSE 9.2 mph - N/A   Clear
1:58 PM 57.6 °F - 16.5 °F 20% 30.01 in 10.0 mi SSW 9.2 mph - N/A   Clear
2:58 PM 58.3 °F - 16.3 °F 19% 29.97 in 10.0 mi South 8.1 mph - N/A   Clear
3:58 PM 58.5 °F - 18.0 °F 21% 29.98 in 10.0 mi SSW 6.9 mph - N/A   Clear
4:58 PM 58.1 °F - 19.0 °F 22% 29.95 in 10.0 mi SSW 6.9 mph - N/A   Clear
5:58 PM 54.9 °F - 21.7 °F 28% 29.93 in 10.0 mi West 3.5 mph - N/A   Clear
6:58 PM 44.1 °F 40.1 °F 26.2 °F 50% 30.00 in 10.0 mi NNW 6.9 mph - N/A   Clear
7:58 PM 38.8 °F 33.2 °F 26.2 °F 61% 30.04 in 10.0 mi North 8.1 mph - N/A   Clear
8:58 PM 36.9 °F 32.2 °F 26.1 °F 65% 30.03 in 10.0 mi North 5.8 mph - N/A   Clear
9:58 PM 33.8 °F 28.6 °F 24.8 °F 70% 29.98 in 10.0 mi Variable 5.8 mph - N/A   Clear
10:58 PM 32.7 °F 27.3 °F 23.5 °F 69% 29.95 in 10.0 mi Variable 5.8 mph - N/A   Clear
11:58 PM 37.8 °F 34.2 °F 20.3 °F 49% 29.89 in 10.0 mi Variable 4.6 mph - N/A   Clear